[[{"header":{"parameterUnit":"m.s-1","parameterCategory":1,"la1":30.2992,"la2":30.254,"lo1":-89.0895,"lo2":-89.0443,"dy":0.0025,"dx":0.0025,"nx":19,"ny":19,"refTime":"2026-03-17T09:00:00:Z","depth":0,"parameterNumber":2,"parameterNumberName":"U-component_of_WINDS"},"data":[0,0,0,0.0909,0.0909,0.091,0.091,0.091,0.091,0,0,0,0,0,0,0,0,0,0,0,0.0908,0.0907,0.0909,0.0909,0.091,0.091,0.091,0.091,0,0,0,0,0,0,0,0,0,0,0,0.0908,0.0907,0.0907,0.0909,0.091,0.091,0.091,0.091,0,0,0,0,0,0,0,0,0,0,0.0909,0.0906,0.0907,0.0907,0.0909,0.091,0.091,0.091,0.091,0.0909,0,0.0907,0,0.0909,0.091,0.091,0,0,0,0.091,0.0906,0.0908,0.0907,0.0909,0.091,0.091,0.091,0.091,0.0909,0.0907,0.0907,0.0909,0.091,0.091,0.09,0.09,0,0,0.091,0.0907,0.0908,0.0908,0.0907,0.091,0.091,0.091,0.0908,0.0907,0.0907,0.0909,0.091,0.091,0.09,0.09,0,0,0,0.0909,0.0907,0.0909,0.0908,0.0908,0.091,0.091,0.0908,0.0909,0.0907,0.0909,0.091,0.091,0.09,0.09,0.0891,0,0,0,0.0909,0.0906,0.0908,0.0906,0.0908,0.0908,0.0908,0.0909,0.0909,0.0909,0.091,0.091,0.09,0.09,0.0892,0.0888,0,0,0,0.0908,0.0906,0.0906,0.0906,0.0906,0.0908,0.0909,0.0909,0.091,0.091,0.091,0.09,0.09,0.0892,0.0888,0.0884,0,0,0,0.0905,0.0898,0.0906,0.0898,0.0906,0.0903,0.0909,0.0906,0.0906,0.091,0.09,0.09,0.0892,0.0889,0.0885,0.088,0.0877,0,0,0.0894,0.0896,0.0892,0.0899,0.0893,0.0903,0.0896,0.0898,0.0902,0.09,0.09,0.0892,0.0888,0.0884,0.0866,0.0864,0,0,0,0.0887,0.0884,0.0883,0.0883,0.0885,0.0886,0.0891,0.0892,0.0891,0.09,0.0889,0.0887,0.0885,0.0883,0.0881,0.088,0.0899,0.0899,0.0899,0.0865,0.087,0.0864,0.087,0.0869,0.0874,0.0875,0.0877,0.0882,0.088,0.0879,0.0867,0.0865,0.0864,0.0862,0.0877,0.0877,0.0877,0.0877,0.0848,0.0845,0.0853,0.085,0.0856,0.0853,0.0859,0.0863,0.0862,0.0868,0.0866,0.0872,0.0861,0.086,0.0876,0.0877,0.0877,0.0877,0.0877,0.0834,0.0833,0.0835,0.0836,0.0836,0.0843,0.0842,0.0847,0.0853,0.0851,0.0851,0.0851,0.0852,0.0851,0.0851,0.0851,0.0851,0.0851,0.0851,0.0818,0.082,0.0819,0.0822,0.0823,0.0825,0.0832,0.0833,0.0836,0.084,0.084,0.0846,0.0859,0.0863,0.085,0.085,0.085,0.085,0.085,0.0798,0.0804,0.0801,0.0802,0.0807,0.0807,0.0815,0.0818,0.082,0.082,0.0826,0.0835,0.0838,0.0839,0.0842,0.0825,0.0825,0.0825,0.0825,0.0785,0.0788,0.0787,0.0789,0.0791,0.0799,0.0797,0.0803,0.0809,0.0811,0.0815,0.0819,0.082,0.0822,0.0824,0.0827,0.0806,0.0806,0.0806,0.0773,0.0777,0.0773,0.078,0.0785,0.0789,0.0788,0.079,0.0799,0.0805,0.0813,0.0814,0.0821,0.0823,0.0827,0.083,0.0835,0,0]},{"header":{"parameterUnit":"m.s-1","parameterCategory":1,"la1":30.2992,"la2":30.254,"lo1":-89.0895,"lo2":-89.0443,"dy":0.0025,"dx":0.0025,"nx":19,"ny":19,"refTime":"2026-03-17T09:00:00:Z","depth":0,"parameterNumber":3,"parameterNumberName":"V-component_of_WINDS"},"data":[0,0,0,-4.5546,-4.555,-4.5715,-4.5716,-4.5928,-4.593,0,0,0,0,0,0,0,0,0,0,0,-4.55,-4.5502,-4.5546,-4.555,-4.5715,-4.5716,-4.5928,-4.593,0,0,0,0,0,0,0,0,0,0,0,-4.5499,-4.5501,-4.5503,-4.5551,-4.5715,-4.5716,-4.5927,-4.5802,0,0,0,0,0,0,0,0,0,0,-4.5641,-4.5601,-4.5501,-4.5503,-4.5552,-4.5715,-4.5716,-4.5796,-4.581,-4.5854,0,-4.5897,0,-4.5917,-4.5945,-4.5945,0,0,0,-4.5548,-4.559,-4.5632,-4.5504,-4.5554,-4.5715,-4.564,-4.5804,-4.5819,-4.5873,-4.59,-4.5907,-4.592,-4.5946,-4.5947,-4.6216,-4.6218,0,0,-4.5539,-4.5531,-4.5621,-4.5643,-4.5619,-4.5635,-4.5645,-4.5813,-4.5841,-4.59,-4.5912,-4.5924,-4.5947,-4.5949,-4.6215,-4.6217,0,0,0,-4.5514,-4.5525,-4.5563,-4.5634,-4.5664,-4.564,-4.5652,-4.5833,-4.5847,-4.5915,-4.5926,-4.5949,-4.5951,-4.6214,-4.6216,-4.6275,0,0,0,-4.5509,-4.551,-4.5559,-4.5556,-4.5661,-4.5751,-4.5668,-4.5835,-4.5854,-4.5925,-4.5949,-4.5953,-4.6212,-4.6215,-4.627,-4.6304,0,0,0,-4.5488,-4.5508,-4.5533,-4.5555,-4.5626,-4.5749,-4.5771,-4.5839,-4.5862,-4.5945,-4.5954,-4.6211,-4.6214,-4.6266,-4.6297,-4.6372,0,0,0,-4.5464,-4.5583,-4.5534,-4.5671,-4.5624,-4.5785,-4.577,-4.589,-4.5969,-4.595,-4.6212,-4.6215,-4.6265,-4.6293,-4.6367,-4.6432,-4.6459,0,0,-4.561,-4.56,-4.5682,-4.5643,-4.581,-4.576,-4.5936,-4.6016,-4.6031,-4.6153,-4.616,-4.6272,-4.6297,-4.6371,-4.6615,-4.6636,0,0,0,-4.5725,-4.5784,-4.583,-4.5906,-4.597,-4.6028,-4.6081,-4.6111,-4.6215,-4.6093,-4.632,-4.6335,-4.6379,-4.641,-4.6428,-4.6466,-4.623,-4.623,-4.6229,-4.5919,-4.5932,-4.6068,-4.6101,-4.6175,-4.6229,-4.6289,-4.6337,-4.6329,-4.6383,-4.6418,-4.6565,-4.6602,-4.6616,-4.6654,-4.6455,-4.6456,-4.6456,-4.6456,-4.6132,-4.6216,-4.6203,-4.633,-4.6343,-4.6448,-4.6505,-4.6495,-4.6595,-4.6539,-4.6579,-4.6516,-4.6639,-4.6673,-4.6461,-4.646,-4.6459,-4.6459,-4.6458,-4.6259,-4.6301,-4.6336,-4.6447,-4.653,-4.6559,-4.6656,-4.6664,-4.6672,-4.6711,-4.6749,-4.6748,-4.6747,-4.6729,-4.673,-4.673,-4.6731,-4.6731,-4.6732,-4.6376,-4.6413,-4.6494,-4.6573,-4.6622,-4.6688,-4.6744,-4.6792,-4.6848,-4.6846,-4.6846,-4.6831,-4.6649,-4.6602,-4.6739,-4.6738,-4.6737,-4.6736,-4.6736,-4.6584,-4.6539,-4.6663,-4.6713,-4.6806,-4.6887,-4.6898,-4.6995,-4.7036,-4.7083,-4.7061,-4.6925,-4.6915,-4.6901,-4.6862,-4.7058,-4.7058,-4.7058,-4.7058,-4.669,-4.6687,-4.6816,-4.6894,-4.6973,-4.6995,-4.7133,-4.7177,-4.7216,-4.7242,-4.7215,-4.7164,-4.7149,-4.7149,-4.7129,-4.7092,-4.7343,-4.7344,-4.7344,-4.6818,-4.6823,-4.694,-4.6978,-4.7052,-4.7114,-4.7244,-4.7333,-4.7367,-4.7356,-4.7262,-4.725,-4.7168,-4.7142,-4.7126,-4.7095,-4.7029,0,0]}]]